Powrót do katalogu

COSMOS 2251 DEB

AktywnyLEO
NORAD 33779·DEBRIS·🇷🇺 Russia

Wystrzelony Jun 16, 1993 z Plesetsk Cosmodrome

Loading…

Następne Przeloty (najbliższe 24 godziny)

TLE

ŚwieżeSource: Space-Track

Epoka: Sep 14, 2026, 01:06 UTC

1 33779U 93036U   26257.04586618  .00005123  00000-0  74891-3 0  9993
2 33779  74.0456 354.0811 0016071 323.6572 211.3047 14.75876946925834

Śledź COSMOS 2251 DEB w czasie rzeczywistym z AllMySat

Download on the App Store